owner,sensor,date,latitude,longitude,vertical_datum,sea_water_practical_salinity,qcFlag 
TCOON,ioos:station:TCOON:043:1,2017-10-01T00:30:00Z,27.8838,-97.5332,0.0,33.6,1111122 
TCOON,ioos:station:TCOON:043:1,2017-10-01T01:30:00Z,27.8838,-97.5332,0.0,33.7,1111122 
TCOON,ioos:station:TCOON:043:1,2017-10-01T02:30:00Z,27.8838,-97.5332,0.0,33.7,1111122 
TCOON,ioos:station:TCOON:043:1,2017-10-01T03:30:00Z,27.8838,-97.5332,0.0,33.7,1111122 
TCOON,ioos:station:TCOON:043:1,2017-10-01T04:30:00Z,27.8838,-97.5332,0.0,33.7,1111122 
TCOON,ioos:station:TCOON:043:1,2017-10-01T05:30:00Z,27.8838,-97.5332,0.0,33.3,1111122 
TCOON,ioos:station:TCOON:043:1,2017-10-01T06:30:00Z,27.8838,-97.5332,0.0,32.9,1111122 
TCOON,ioos:station:TCOON:043:1,2017-10-01T07:30:00Z,27.8838,-97.5332,0.0,32.8,1111122 
TCOON,ioos:station:TCOON:043:1,2017-10-01T08:30:00Z,27.8838,-97.5332,0.0,32.8,1111122 
TCOON,ioos:station:TCOON:043:1,2017-10-01T09:30:00Z,27.8838,-97.5332,0.0,32.7,1111122 
TCOON,ioos:station:TCOON:043:1,2017-10-01T10:30:00Z,27.8838,-97.5332,0.0,32.7,1111122 
TCOON,ioos:station:TCOON:043:1,2017-10-01T11:30:00Z,27.8838,-97.5332,0.0,32.7,1111122 
TCOON,ioos:station:TCOON:043:1,2017-10-01T12:30:00Z,27.8838,-97.5332,0.0,32.8,1111122 
TCOON,ioos:station:TCOON:043:1,2017-10-01T13:30:00Z,27.8838,-97.5332,0.0,33.2,1111122 
TCOON,ioos:station:TCOON:043:1,2017-10-01T14:30:00Z,27.8838,-97.5332,0.0,33.5,1111122 
TCOON,ioos:station:TCOON:043:1,2017-10-01T15:30:00Z,27.8838,-97.5332,0.0,33.4,1111122 
TCOON,ioos:station:TCOON:043:1,2017-10-01T16:30:00Z,27.8838,-97.5332,0.0,33.3,1111122 
TCOON,ioos:station:TCOON:043:1,2017-10-01T17:30:00Z,27.8838,-97.5332,0.0,33.5,1111122 
TCOON,ioos:station:TCOON:043:1,2017-10-01T18:30:00Z,27.8838,-97.5332,0.0,33.6,1111122 
TCOON,ioos:station:TCOON:043:1,2017-10-01T19:30:00Z,27.8838,-97.5332,0.0,33.7,1111122 
TCOON,ioos:station:TCOON:043:1,2017-10-01T20:30:00Z,27.8838,-97.5332,0.0,33.5,1111122 
TCOON,ioos:station:TCOON:043:1,2017-10-01T21:30:00Z,27.8838,-97.5332,0.0,33.4,1111122 
TCOON,ioos:station:TCOON:043:1,2017-10-01T22:30:00Z,27.8838,-97.5332,0.0,33.4,1111122 
TCOON,ioos:station:TCOON:043:1,2017-10-01T23:30:00Z,27.8838,-97.5332,0.0,33.4,1111122 
TCOON,ioos:station:TCOON:043:1,2017-10-02T00:30:00Z,27.8838,-97.5332,0.0,33.5,1111122 
TCOON,ioos:station:TCOON:043:1,2017-10-02T01:30:00Z,27.8838,-97.5332,0.0,33.6,1111122 
TCOON,ioos:station:TCOON:043:1,2017-10-02T02:30:00Z,27.8838,-97.5332,0.0,33.7,1111122 
TCOON,ioos:station:TCOON:043:1,2017-10-02T03:30:00Z,27.8838,-97.5332,0.0,33.5,1111122 
TCOON,ioos:station:TCOON:043:1,2017-10-02T04:30:00Z,27.8838,-97.5332,0.0,33.7,1111122 
TCOON,ioos:station:TCOON:043:1,2017-10-02T05:30:00Z,27.8838,-97.5332,0.0,33.8,1111122 
TCOON,ioos:station:TCOON:043:1,2017-10-02T07:00:00Z,27.8838,-97.5332,0.0,33.6,1111122 
TCOON,ioos:station:TCOON:043:1,2017-10-02T07:30:00Z,27.8838,-97.5332,0.0,33.4,1111122 
TCOON,ioos:station:TCOON:043:1,2017-10-02T08:30:00Z,27.8838,-97.5332,0.0,33.0,1111122 
TCOON,ioos:station:TCOON:043:1,2017-10-02T09:30:00Z,27.8838,-97.5332,0.0,32.8,1111122 
TCOON,ioos:station:TCOON:043:1,2017-10-02T10:30:00Z,27.8838,-97.5332,0.0,32.9,1111122 
TCOON,ioos:station:TCOON:043:1,2017-10-02T11:30:00Z,27.8838,-97.5332,0.0,33.3,1111122 
TCOON,ioos:station:TCOON:043:1,2017-10-02T12:30:00Z,27.8838,-97.5332,0.0,33.8,1111122 
TCOON,ioos:station:TCOON:043:1,2017-10-02T13:30:00Z,27.8838,-97.5332,0.0,34.1,1111122 
TCOON,ioos:station:TCOON:043:1,2017-10-02T14:30:00Z,27.8838,-97.5332,0.0,33.8,1111122 
TCOON,ioos:station:TCOON:043:1,2017-10-02T15:30:00Z,27.8838,-97.5332,0.0,33.2,1111122 
TCOON,ioos:station:TCOON:043:1,2017-10-02T16:30:00Z,27.8838,-97.5332,0.0,32.8,1111122 
TCOON,ioos:station:TCOON:043:1,2017-10-02T17:30:00Z,27.8838,-97.5332,0.0,32.6,1111122 
TCOON,ioos:station:TCOON:043:1,2017-10-02T18:30:00Z,27.8838,-97.5332,0.0,32.4,1111122 
TCOON,ioos:station:TCOON:043:1,2017-10-02T19:30:00Z,27.8838,-97.5332,0.0,32.5,1111122 
TCOON,ioos:station:TCOON:043:1,2017-10-02T20:30:00Z,27.8838,-97.5332,0.0,32.3,1111122 
TCOON,ioos:station:TCOON:043:1,2017-10-02T21:30:00Z,27.8838,-97.5332,0.0,32.3,1111122 
TCOON,ioos:station:TCOON:043:1,2017-10-02T22:30:00Z,27.8838,-97.5332,0.0,32.3,1111122 
TCOON,ioos:station:TCOON:043:1,2017-10-02T23:30:00Z,27.8838,-97.5332,0.0,32.4,1111122 
TCOON,ioos:station:TCOON:043:1,2017-10-03T00:30:00Z,27.8838,-97.5332,0.0,32.5,1111122 
TCOON,ioos:station:TCOON:043:1,2017-10-03T01:30:00Z,27.8838,-97.5332,0.0,32.7,1111122 
TCOON,ioos:station:TCOON:043:1,2017-10-03T02:30:00Z,27.8838,-97.5332,0.0,32.7,1111122 
TCOON,ioos:station:TCOON:043:1,2017-10-03T03:30:00Z,27.8838,-97.5332,0.0,32.9,1111122 
TCOON,ioos:station:TCOON:043:1,2017-10-03T04:30:00Z,27.8838,-97.5332,0.0,32.9,1111122 
TCOON,ioos:station:TCOON:043:1,2017-10-03T05:30:00Z,27.8838,-97.5332,0.0,33.0,1111122 
TCOON,ioos:station:TCOON:043:1,2017-10-03T06:30:00Z,27.8838,-97.5332,0.0,33.0,1111122 
TCOON,ioos:station:TCOON:043:1,2017-10-03T07:30:00Z,27.8838,-97.5332,0.0,33.3,1111122 
TCOON,ioos:station:TCOON:043:1,2017-10-03T08:30:00Z,27.8838,-97.5332,0.0,33.8,1111122 
TCOON,ioos:station:TCOON:043:1,2017-10-03T09:30:00Z,27.8838,-97.5332,0.0,33.2,1111122 
TCOON,ioos:station:TCOON:043:1,2017-10-03T11:30:00Z,27.8838,-97.5332,0.0,32.7,1111122 
TCOON,ioos:station:TCOON:043:1,2017-10-03T12:30:00Z,27.8838,-97.5332,0.0,32.7,1111122 
TCOON,ioos:station:TCOON:043:1,2017-10-03T13:30:00Z,27.8838,-97.5332,0.0,32.8,1111122 
TCOON,ioos:station:TCOON:043:1,2017-10-03T14:30:00Z,27.8838,-97.5332,0.0,32.8,1111122 
TCOON,ioos:station:TCOON:043:1,2017-10-03T15:30:00Z,27.8838,-97.5332,0.0,32.7,1111122 
TCOON,ioos:station:TCOON:043:1,2017-10-03T16:30:00Z,27.8838,-97.5332,0.0,32.5,1111122 
TCOON,ioos:station:TCOON:043:1,2017-10-03T17:30:00Z,27.8838,-97.5332,0.0,32.2,1111122 
TCOON,ioos:station:TCOON:043:1,2017-10-03T18:30:00Z,27.8838,-97.5332,0.0,32.2,1111122 
TCOON,ioos:station:TCOON:043:1,2017-10-03T19:30:00Z,27.8838,-97.5332,0.0,32.1,1111122 
TCOON,ioos:station:TCOON:043:1,2017-10-03T20:30:00Z,27.8838,-97.5332,0.0,32.3,1111122 
TCOON,ioos:station:TCOON:043:1,2017-10-03T21:30:00Z,27.8838,-97.5332,0.0,32.2,1111122 
TCOON,ioos:station:TCOON:043:1,2017-10-03T22:30:00Z,27.8838,-97.5332,0.0,32.2,1111122 
TCOON,ioos:station:TCOON:043:1,2017-10-03T23:30:00Z,27.8838,-97.5332,0.0,32.3,1111122 
TCOON,ioos:station:TCOON:043:1,2017-10-04T00:30:00Z,27.8838,-97.5332,0.0,32.1,1111122 
TCOON,ioos:station:TCOON:043:1,2017-10-04T01:30:00Z,27.8838,-97.5332,0.0,31.6,1111122 
TCOON,ioos:station:TCOON:043:1,2017-10-04T02:30:00Z,27.8838,-97.5332,0.0,31.2,1111122 
TCOON,ioos:station:TCOON:043:1,2017-10-04T03:30:00Z,27.8838,-97.5332,0.0,31.2,1111122 
TCOON,ioos:station:TCOON:043:1,2017-10-04T04:30:00Z,27.8838,-97.5332,0.0,31.3,1111122 
TCOON,ioos:station:TCOON:043:1,2017-10-04T05:30:00Z,27.8838,-97.5332,0.0,31.2,1111122 
TCOON,ioos:station:TCOON:043:1,2017-10-04T06:30:00Z,27.8838,-97.5332,0.0,31.2,1111122 
TCOON,ioos:station:TCOON:043:1,2017-10-04T07:30:00Z,27.8838,-97.5332,0.0,31.2,1111122 
TCOON,ioos:station:TCOON:043:1,2017-10-04T08:30:00Z,27.8838,-97.5332,0.0,31.0,1111122 
TCOON,ioos:station:TCOON:043:1,2017-10-04T09:30:00Z,27.8838,-97.5332,0.0,31.0,1111122 
TCOON,ioos:station:TCOON:043:1,2017-10-04T11:30:00Z,27.8838,-97.5332,0.0,30.9,1111122 
TCOON,ioos:station:TCOON:043:1,2017-10-04T12:30:00Z,27.8838,-97.5332,0.0,30.6,1111122 
TCOON,ioos:station:TCOON:043:1,2017-10-04T13:30:00Z,27.8838,-97.5332,0.0,30.4,1111122 
TCOON,ioos:station:TCOON:043:1,2017-10-04T14:30:00Z,27.8838,-97.5332,0.0,30.6,1111122 
TCOON,ioos:station:TCOON:043:1,2017-10-04T15:30:00Z,27.8838,-97.5332,0.0,30.8,1111122 
TCOON,ioos:station:TCOON:043:1,2017-10-04T16:30:00Z,27.8838,-97.5332,0.0,30.8,1111122 
TCOON,ioos:station:TCOON:043:1,2017-10-04T17:30:00Z,27.8838,-97.5332,0.0,30.7,1111122 
TCOON,ioos:station:TCOON:043:1,2017-10-04T18:30:00Z,27.8838,-97.5332,0.0,30.7,1111122 
TCOON,ioos:station:TCOON:043:1,2017-10-04T19:30:00Z,27.8838,-97.5332,0.0,30.7,1111122 
TCOON,ioos:station:TCOON:043:1,2017-10-04T20:30:00Z,27.8838,-97.5332,0.0,30.7,1111122 
TCOON,ioos:station:TCOON:043:1,2017-10-04T21:30:00Z,27.8838,-97.5332,0.0,30.8,1111122 
TCOON,ioos:station:TCOON:043:1,2017-10-04T22:30:00Z,27.8838,-97.5332,0.0,30.8,1111122 
TCOON,ioos:station:TCOON:043:1,2017-10-04T23:30:00Z,27.8838,-97.5332,0.0,30.9,1111122 
TCOON,ioos:station:TCOON:043:1,2017-10-05T00:30:00Z,27.8838,-97.5332,0.0,30.9,1111122 
TCOON,ioos:station:TCOON:043:1,2017-10-05T01:30:00Z,27.8838,-97.5332,0.0,31.0,1111122 
TCOON,ioos:station:TCOON:043:1,2017-10-05T02:30:00Z,27.8838,-97.5332,0.0,31.0,1111122 
TCOON,ioos:station:TCOON:043:1,2017-10-05T03:30:00Z,27.8838,-97.5332,0.0,31.0,1111122 
TCOON,ioos:station:TCOON:043:1,2017-10-05T04:30:00Z,27.8838,-97.5332,0.0,30.8,1111122 
TCOON,ioos:station:TCOON:043:1,2017-10-05T05:30:00Z,27.8838,-97.5332,0.0,30.9,1111122 
TCOON,ioos:station:TCOON:043:1,2017-10-05T06:30:00Z,27.8838,-97.5332,0.0,30.9,1111122 
TCOON,ioos:station:TCOON:043:1,2017-10-05T07:30:00Z,27.8838,-97.5332,0.0,30.9,1111122 
TCOON,ioos:station:TCOON:043:1,2017-10-05T08:30:00Z,27.8838,-97.5332,0.0,30.9,1111122 
TCOON,ioos:station:TCOON:043:1,2017-10-05T09:30:00Z,27.8838,-97.5332,0.0,30.6,1111122 
TCOON,ioos:station:TCOON:043:1,2017-10-05T10:30:00Z,27.8838,-97.5332,0.0,30.8,1111122 
TCOON,ioos:station:TCOON:043:1,2017-10-05T11:30:00Z,27.8838,-97.5332,0.0,30.9,1111122 
TCOON,ioos:station:TCOON:043:1,2017-10-05T12:30:00Z,27.8838,-97.5332,0.0,30.9,1111122 
TCOON,ioos:station:TCOON:043:1,2017-10-05T13:30:00Z,27.8838,-97.5332,0.0,31.0,1111122 
TCOON,ioos:station:TCOON:043:1,2017-10-05T14:30:00Z,27.8838,-97.5332,0.0,31.0,1111122 
TCOON,ioos:station:TCOON:043:1,2017-10-05T15:30:00Z,27.8838,-97.5332,0.0,30.9,1111122 
TCOON,ioos:station:TCOON:043:1,2017-10-05T16:30:00Z,27.8838,-97.5332,0.0,30.9,1111122 
TCOON,ioos:station:TCOON:043:1,2017-10-05T17:30:00Z,27.8838,-97.5332,0.0,30.8,1111122 
TCOON,ioos:station:TCOON:043:1,2017-10-05T18:30:00Z,27.8838,-97.5332,0.0,30.8,1111122 
TCOON,ioos:station:TCOON:043:1,2017-10-05T19:30:00Z,27.8838,-97.5332,0.0,30.8,1111122 
TCOON,ioos:station:TCOON:043:1,2017-10-05T20:30:00Z,27.8838,-97.5332,0.0,30.7,1111122 
TCOON,ioos:station:TCOON:043:1,2017-10-06T23:30:00Z,27.8838,-97.5332,0.0,30.6,1111122 
TCOON,ioos:station:TCOON:043:1,2017-10-07T00:30:00Z,27.8838,-97.5332,0.0,30.6,1111122 
TCOON,ioos:station:TCOON:043:1,2017-10-07T01:30:00Z,27.8838,-97.5332,0.0,31.0,1111122 
TCOON,ioos:station:TCOON:043:1,2017-10-07T02:30:00Z,27.8838,-97.5332,0.0,30.8,1111122 
TCOON,ioos:station:TCOON:043:1,2017-10-07T03:30:00Z,27.8838,-97.5332,0.0,30.9,1111122 
TCOON,ioos:station:TCOON:043:1,2017-10-07T04:30:00Z,27.8838,-97.5332,0.0,30.8,1111122 
TCOON,ioos:station:TCOON:043:1,2017-10-07T05:30:00Z,27.8838,-97.5332,0.0,30.7,1111122 
TCOON,ioos:station:TCOON:043:1,2017-10-07T06:30:00Z,27.8838,-97.5332,0.0,30.7,1111122 
TCOON,ioos:station:TCOON:043:1,2017-10-07T07:30:00Z,27.8838,-97.5332,0.0,30.8,1111122 
TCOON,ioos:station:TCOON:043:1,2017-10-07T08:30:00Z,27.8838,-97.5332,0.0,30.7,1111122 
TCOON,ioos:station:TCOON:043:1,2017-10-07T09:30:00Z,27.8838,-97.5332,0.0,30.7,1111122 
TCOON,ioos:station:TCOON:043:1,2017-10-07T10:30:00Z,27.8838,-97.5332,0.0,31.0,1111122 
TCOON,ioos:station:TCOON:043:1,2017-10-07T11:30:00Z,27.8838,-97.5332,0.0,31.0,1111122 
TCOON,ioos:station:TCOON:043:1,2017-10-07T12:30:00Z,27.8838,-97.5332,0.0,30.9,1111122 
TCOON,ioos:station:TCOON:043:1,2017-10-07T13:30:00Z,27.8838,-97.5332,0.0,30.8,1111122 
TCOON,ioos:station:TCOON:043:1,2017-10-07T14:30:00Z,27.8838,-97.5332,0.0,30.6,1111122 
TCOON,ioos:station:TCOON:043:1,2017-10-07T15:30:00Z,27.8838,-97.5332,0.0,30.2,1111122 
TCOON,ioos:station:TCOON:043:1,2017-10-07T16:30:00Z,27.8838,-97.5332,0.0,29.9,1111122 
TCOON,ioos:station:TCOON:043:1,2017-10-07T17:30:00Z,27.8838,-97.5332,0.0,29.6,1111122 
TCOON,ioos:station:TCOON:043:1,2017-10-07T18:30:00Z,27.8838,-97.5332,0.0,29.5,1111122 
TCOON,ioos:station:TCOON:043:1,2017-10-07T19:30:00Z,27.8838,-97.5332,0.0,29.3,1111122 
TCOON,ioos:station:TCOON:043:1,2017-10-07T20:30:00Z,27.8838,-97.5332,0.0,29.0,1111122 
TCOON,ioos:station:TCOON:043:1,2017-10-07T21:30:00Z,27.8838,-97.5332,0.0,28.6,1111122 
TCOON,ioos:station:TCOON:043:1,2017-10-07T22:30:00Z,27.8838,-97.5332,0.0,28.2,1111122 
TCOON,ioos:station:TCOON:043:1,2017-10-07T23:30:00Z,27.8838,-97.5332,0.0,27.4,1111122 
TCOON,ioos:station:TCOON:043:1,2017-10-08T00:30:00Z,27.8838,-97.5332,0.0,27.8,1111122 
TCOON,ioos:station:TCOON:043:1,2017-10-08T01:30:00Z,27.8838,-97.5332,0.0,28.4,1111122 
TCOON,ioos:station:TCOON:043:1,2017-10-08T02:30:00Z,27.8838,-97.5332,0.0,30.1,1111122 
TCOON,ioos:station:TCOON:043:1,2017-10-08T03:30:00Z,27.8838,-97.5332,0.0,29.9,1111122 
TCOON,ioos:station:TCOON:043:1,2017-10-08T04:30:00Z,27.8838,-97.5332,0.0,30.1,1111122 
TCOON,ioos:station:TCOON:043:1,2017-10-08T05:30:00Z,27.8838,-97.5332,0.0,30.0,1111122 
TCOON,ioos:station:TCOON:043:1,2017-10-08T06:30:00Z,27.8838,-97.5332,0.0,30.0,1111122 
TCOON,ioos:station:TCOON:043:1,2017-10-08T07:30:00Z,27.8838,-97.5332,0.0,29.8,1111122 
TCOON,ioos:station:TCOON:043:1,2017-10-08T08:30:00Z,27.8838,-97.5332,0.0,29.4,1111122 
TCOON,ioos:station:TCOON:043:1,2017-10-08T09:30:00Z,27.8838,-97.5332,0.0,28.9,1111122 
TCOON,ioos:station:TCOON:043:1,2017-10-08T10:30:00Z,27.8838,-97.5332,0.0,28.2,1111122 
TCOON,ioos:station:TCOON:043:1,2017-10-08T11:30:00Z,27.8838,-97.5332,0.0,27.0,1111122 
TCOON,ioos:station:TCOON:043:1,2017-10-08T12:30:00Z,27.8838,-97.5332,0.0,25.9,1111122 
TCOON,ioos:station:TCOON:043:1,2017-10-08T13:30:00Z,27.8838,-97.5332,0.0,25.1,1111122 
TCOON,ioos:station:TCOON:043:1,2017-10-08T14:30:00Z,27.8838,-97.5332,0.0,24.7,1111122 
TCOON,ioos:station:TCOON:043:1,2017-10-08T15:30:00Z,27.8838,-97.5332,0.0,24.3,1111122 
TCOON,ioos:station:TCOON:043:1,2017-10-08T16:30:00Z,27.8838,-97.5332,0.0,24.3,1111122 
TCOON,ioos:station:TCOON:043:1,2017-10-08T17:30:00Z,27.8838,-97.5332,0.0,24.3,1111122 
TCOON,ioos:station:TCOON:043:1,2017-10-08T18:30:00Z,27.8838,-97.5332,0.0,24.6,1111122 
TCOON,ioos:station:TCOON:043:1,2017-10-08T19:30:00Z,27.8838,-97.5332,0.0,24.7,1111122 
TCOON,ioos:station:TCOON:043:1,2017-10-08T20:30:00Z,27.8838,-97.5332,0.0,24.4,1111122 
TCOON,ioos:station:TCOON:043:1,2017-10-08T21:30:00Z,27.8838,-97.5332,0.0,23.8,1111122 
TCOON,ioos:station:TCOON:043:1,2017-10-08T22:30:00Z,27.8838,-97.5332,0.0,23.5,1111122 
TCOON,ioos:station:TCOON:043:1,2017-10-08T23:30:00Z,27.8838,-97.5332,0.0,23.2,1111122 
TCOON,ioos:station:TCOON:043:1,2017-10-09T00:30:00Z,27.8838,-97.5332,0.0,23.1,1111122 
TCOON,ioos:station:TCOON:043:1,2017-10-09T01:30:00Z,27.8838,-97.5332,0.0,23.2,1111122 
TCOON,ioos:station:TCOON:043:1,2017-10-09T02:30:00Z,27.8838,-97.5332,0.0,23.6,1111122 
TCOON,ioos:station:TCOON:043:1,2017-10-09T03:30:00Z,27.8838,-97.5332,0.0,25.3,1111122 
TCOON,ioos:station:TCOON:043:1,2017-10-09T04:30:00Z,27.8838,-97.5332,0.0,27.2,1111122 
TCOON,ioos:station:TCOON:043:1,2017-10-09T05:30:00Z,27.8838,-97.5332,0.0,27.6,1111122 
TCOON,ioos:station:TCOON:043:1,2017-10-09T06:30:00Z,27.8838,-97.5332,0.0,27.9,1111122 
TCOON,ioos:station:TCOON:043:1,2017-10-09T07:30:00Z,27.8838,-97.5332,0.0,28.0,1111122 
TCOON,ioos:station:TCOON:043:1,2017-10-09T08:30:00Z,27.8838,-97.5332,0.0,28.1,1111122 
TCOON,ioos:station:TCOON:043:1,2017-10-09T09:30:00Z,27.8838,-97.5332,0.0,28.1,1111122 
TCOON,ioos:station:TCOON:043:1,2017-10-09T10:30:00Z,27.8838,-97.5332,0.0,28.1,1111122 
TCOON,ioos:station:TCOON:043:1,2017-10-09T11:30:00Z,27.8838,-97.5332,0.0,27.8,1111122 
TCOON,ioos:station:TCOON:043:1,2017-10-09T12:30:00Z,27.8838,-97.5332,0.0,27.1,1111122 
TCOON,ioos:station:TCOON:043:1,2017-10-09T13:30:00Z,27.8838,-97.5332,0.0,26.8,1111122 
TCOON,ioos:station:TCOON:043:1,2017-10-09T14:30:00Z,27.8838,-97.5332,0.0,26.0,1111122 
TCOON,ioos:station:TCOON:043:1,2017-10-09T15:30:00Z,27.8838,-97.5332,0.0,25.4,1111122 
TCOON,ioos:station:TCOON:043:1,2017-10-09T16:30:00Z,27.8838,-97.5332,0.0,25.2,1111122 
TCOON,ioos:station:TCOON:043:1,2017-10-09T17:30:00Z,27.8838,-97.5332,0.0,25.0,1111122 
TCOON,ioos:station:TCOON:043:1,2017-10-09T18:30:00Z,27.8838,-97.5332,0.0,24.9,1111122 
TCOON,ioos:station:TCOON:043:1,2017-10-09T19:30:00Z,27.8838,-97.5332,0.0,24.8,1111122 
TCOON,ioos:station:TCOON:043:1,2017-10-09T20:30:00Z,27.8838,-97.5332,0.0,24.5,1111122 
TCOON,ioos:station:TCOON:043:1,2017-10-09T21:30:00Z,27.8838,-97.5332,0.0,24.3,1111122 
TCOON,ioos:station:TCOON:043:1,2017-10-09T22:30:00Z,27.8838,-97.5332,0.0,24.2,1111122 
TCOON,ioos:station:TCOON:043:1,2017-10-09T23:30:00Z,27.8838,-97.5332,0.0,24.2,1111122 
TCOON,ioos:station:TCOON:043:1,2017-10-10T00:30:00Z,27.8838,-97.5332,0.0,23.7,1111122 
TCOON,ioos:station:TCOON:043:1,2017-10-10T01:30:00Z,27.8838,-97.5332,0.0,23.2,1111122 
TCOON,ioos:station:TCOON:043:1,2017-10-11T05:30:00Z,27.8838,-97.5332,0.0,18.3,1111122 
TCOON,ioos:station:TCOON:043:1,2017-10-11T06:30:00Z,27.8838,-97.5332,0.0,17.8,1111122 
TCOON,ioos:station:TCOON:043:1,2017-10-11T07:30:00Z,27.8838,-97.5332,0.0,17.7,1111122 
TCOON,ioos:station:TCOON:043:1,2017-10-11T08:30:00Z,27.8838,-97.5332,0.0,17.5,1111122 
TCOON,ioos:station:TCOON:043:1,2017-10-11T09:30:00Z,27.8838,-97.5332,0.0,17.5,1111122 
TCOON,ioos:station:TCOON:043:1,2017-10-11T10:30:00Z,27.8838,-97.5332,0.0,17.6,1111122 
TCOON,ioos:station:TCOON:043:1,2017-10-11T11:30:00Z,27.8838,-97.5332,0.0,25.5,1111122 
TCOON,ioos:station:TCOON:043:1,2017-10-11T12:30:00Z,27.8838,-97.5332,0.0,26.0,1111122 
TCOON,ioos:station:TCOON:043:1,2017-10-11T13:30:00Z,27.8838,-97.5332,0.0,26.0,1111122 
TCOON,ioos:station:TCOON:043:1,2017-10-11T14:30:00Z,27.8838,-97.5332,0.0,18.6,1111122 
TCOON,ioos:station:TCOON:043:1,2017-10-11T15:30:00Z,27.8838,-97.5332,0.0,17.7,1111122 
TCOON,ioos:station:TCOON:043:1,2017-10-11T16:30:00Z,27.8838,-97.5332,0.0,16.9,1111122 
TCOON,ioos:station:TCOON:043:1,2017-10-11T17:30:00Z,27.8838,-97.5332,0.0,16.3,1111122 
TCOON,ioos:station:TCOON:043:1,2017-10-11T18:30:00Z,27.8838,-97.5332,0.0,15.7,1111122 
TCOON,ioos:station:TCOON:043:1,2017-10-11T19:30:00Z,27.8838,-97.5332,0.0,15.9,1111122 
TCOON,ioos:station:TCOON:043:1,2017-10-11T20:30:00Z,27.8838,-97.5332,0.0,16.2,1111122 
TCOON,ioos:station:TCOON:043:1,2017-10-11T21:30:00Z,27.8838,-97.5332,0.0,16.6,1111122 
TCOON,ioos:station:TCOON:043:1,2017-10-11T22:30:00Z,27.8838,-97.5332,0.0,16.8,1111122 
TCOON,ioos:station:TCOON:043:1,2017-10-11T23:30:00Z,27.8838,-97.5332,0.0,17.0,1111122 
TCOON,ioos:station:TCOON:043:1,2017-10-12T00:30:00Z,27.8838,-97.5332,0.0,16.9,1111122 
TCOON,ioos:station:TCOON:043:1,2017-10-12T01:30:00Z,27.8838,-97.5332,0.0,16.6,1111122 
TCOON,ioos:station:TCOON:043:1,2017-10-12T02:30:00Z,27.8838,-97.5332,0.0,16.4,1111122 
TCOON,ioos:station:TCOON:043:1,2017-10-12T03:30:00Z,27.8838,-97.5332,0.0,16.4,1111122 
TCOON,ioos:station:TCOON:043:1,2017-10-12T04:30:00Z,27.8838,-97.5332,0.0,16.0,1111122 
TCOON,ioos:station:TCOON:043:1,2017-10-12T05:30:00Z,27.8838,-97.5332,0.0,15.6,1111122 
TCOON,ioos:station:TCOON:043:1,2017-10-12T06:30:00Z,27.8838,-97.5332,0.0,15.1,1111122 
TCOON,ioos:station:TCOON:043:1,2017-10-12T07:30:00Z,27.8838,-97.5332,0.0,14.7,1111122 
TCOON,ioos:station:TCOON:043:1,2017-10-12T08:30:00Z,27.8838,-97.5332,0.0,14.1,1111122 
TCOON,ioos:station:TCOON:043:1,2017-10-12T09:30:00Z,27.8838,-97.5332,0.0,14.0,1111122 
TCOON,ioos:station:TCOON:043:1,2017-10-12T10:30:00Z,27.8838,-97.5332,0.0,14.0,1111122 
TCOON,ioos:station:TCOON:043:1,2017-10-12T11:30:00Z,27.8838,-97.5332,0.0,14.3,1111122 
TCOON,ioos:station:TCOON:043:1,2017-10-12T12:30:00Z,27.8838,-97.5332,0.0,17.6,1111122 
TCOON,ioos:station:TCOON:043:1,2017-10-12T13:30:00Z,27.8838,-97.5332,0.0,14.4,1111122 
TCOON,ioos:station:TCOON:043:1,2017-10-12T14:30:00Z,27.8838,-97.5332,0.0,13.1,1111122 
TCOON,ioos:station:TCOON:043:1,2017-10-12T15:30:00Z,27.8838,-97.5332,0.0,12.4,1111122 
TCOON,ioos:station:TCOON:043:1,2017-10-12T16:30:00Z,27.8838,-97.5332,0.0,11.9,1111122 
TCOON,ioos:station:TCOON:043:1,2017-10-12T17:30:00Z,27.8838,-97.5332,0.0,11.7,1111122 
TCOON,ioos:station:TCOON:043:1,2017-10-12T18:30:00Z,27.8838,-97.5332,0.0,11.5,1111122 
TCOON,ioos:station:TCOON:043:1,2017-10-12T19:30:00Z,27.8838,-97.5332,0.0,12.3,1111122 
TCOON,ioos:station:TCOON:043:1,2017-10-12T20:30:00Z,27.8838,-97.5332,0.0,12.7,1111122 
TCOON,ioos:station:TCOON:043:1,2017-10-12T21:30:00Z,27.8838,-97.5332,0.0,12.8,1111122 
TCOON,ioos:station:TCOON:043:1,2017-10-12T22:30:00Z,27.8838,-97.5332,0.0,12.9,1111122 
TCOON,ioos:station:TCOON:043:1,2017-10-12T23:30:00Z,27.8838,-97.5332,0.0,13.1,1111122 
TCOON,ioos:station:TCOON:043:1,2017-10-13T00:30:00Z,27.8838,-97.5332,0.0,13.2,1111122 
TCOON,ioos:station:TCOON:043:1,2017-10-13T01:30:00Z,27.8838,-97.5332,0.0,13.2,1111122 
TCOON,ioos:station:TCOON:043:1,2017-10-13T02:30:00Z,27.8838,-97.5332,0.0,13.3,1111122 
TCOON,ioos:station:TCOON:043:1,2017-10-13T03:30:00Z,27.8838,-97.5332,0.0,13.3,1111122 
TCOON,ioos:station:TCOON:043:1,2017-10-13T04:30:00Z,27.8838,-97.5332,0.0,13.2,1111122 
TCOON,ioos:station:TCOON:043:1,2017-10-13T05:30:00Z,27.8838,-97.5332,0.0,13.1,1111122 
TCOON,ioos:station:TCOON:043:1,2017-10-13T06:30:00Z,27.8838,-97.5332,0.0,12.8,1111122 
TCOON,ioos:station:TCOON:043:1,2017-10-13T07:30:00Z,27.8838,-97.5332,0.0,12.6,1111122 
TCOON,ioos:station:TCOON:043:1,2017-10-13T08:30:00Z,27.8838,-97.5332,0.0,12.6,1111122 
TCOON,ioos:station:TCOON:043:1,2017-10-13T09:30:00Z,27.8838,-97.5332,0.0,12.7,1111122 
TCOON,ioos:station:TCOON:043:1,2017-10-13T10:30:00Z,27.8838,-97.5332,0.0,13.4,1111122 
TCOON,ioos:station:TCOON:043:1,2017-10-13T11:30:00Z,27.8838,-97.5332,0.0,18.0,1111122 
TCOON,ioos:station:TCOON:043:1,2017-10-13T12:30:00Z,27.8838,-97.5332,0.0,19.4,1111122 
TCOON,ioos:station:TCOON:043:1,2017-10-13T13:30:00Z,27.8838,-97.5332,0.0,19.5,1111122 
TCOON,ioos:station:TCOON:043:1,2017-10-13T14:30:00Z,27.8838,-97.5332,0.0,18.7,1111122 
TCOON,ioos:station:TCOON:043:1,2017-10-13T15:30:00Z,27.8838,-97.5332,0.0,17.9,1111122 
TCOON,ioos:station:TCOON:043:1,2017-10-13T16:30:00Z,27.8838,-97.5332,0.0,17.4,1111122 
TCOON,ioos:station:TCOON:043:1,2017-10-13T17:30:00Z,27.8838,-97.5332,0.0,15.0,1111122 
TCOON,ioos:station:TCOON:043:1,2017-10-13T18:30:00Z,27.8838,-97.5332,0.0,13.6,1111122 
TCOON,ioos:station:TCOON:043:1,2017-10-13T19:30:00Z,27.8838,-97.5332,0.0,12.3,1111122 
TCOON,ioos:station:TCOON:043:1,2017-10-13T20:30:00Z,27.8838,-97.5332,0.0,11.7,1111122 
TCOON,ioos:station:TCOON:043:1,2017-10-13T21:30:00Z,27.8838,-97.5332,0.0,11.8,1111122 
TCOON,ioos:station:TCOON:043:1,2017-10-13T22:30:00Z,27.8838,-97.5332,0.0,12.0,1111122 
TCOON,ioos:station:TCOON:043:1,2017-10-13T23:30:00Z,27.8838,-97.5332,0.0,12.5,1111122 
TCOON,ioos:station:TCOON:043:1,2017-10-14T00:30:00Z,27.8838,-97.5332,0.0,12.0,1111122 
TCOON,ioos:station:TCOON:043:1,2017-10-14T01:30:00Z,27.8838,-97.5332,0.0,12.2,1111122 
TCOON,ioos:station:TCOON:043:1,2017-10-14T02:30:00Z,27.8838,-97.5332,0.0,12.4,1111122 
TCOON,ioos:station:TCOON:043:1,2017-10-14T03:30:00Z,27.8838,-97.5332,0.0,12.5,1111122 
TCOON,ioos:station:TCOON:043:1,2017-10-14T04:30:00Z,27.8838,-97.5332,0.0,12.4,1111122 
TCOON,ioos:station:TCOON:043:1,2017-10-14T05:30:00Z,27.8838,-97.5332,0.0,12.3,1111122 
TCOON,ioos:station:TCOON:043:1,2017-10-14T06:30:00Z,27.8838,-97.5332,0.0,12.3,1111122 
TCOON,ioos:station:TCOON:043:1,2017-10-14T07:30:00Z,27.8838,-97.5332,0.0,12.2,1111122 
TCOON,ioos:station:TCOON:043:1,2017-10-14T08:30:00Z,27.8838,-97.5332,0.0,12.0,1111122 
TCOON,ioos:station:TCOON:043:1,2017-10-14T09:30:00Z,27.8838,-97.5332,0.0,12.4,1111122 
TCOON,ioos:station:TCOON:043:1,2017-10-14T10:30:00Z,27.8838,-97.5332,0.0,13.2,1111122 
TCOON,ioos:station:TCOON:043:1,2017-10-14T11:30:00Z,27.8838,-97.5332,0.0,15.9,1111122 
TCOON,ioos:station:TCOON:043:1,2017-10-14T12:30:00Z,27.8838,-97.5332,0.0,16.4,1111122 
TCOON,ioos:station:TCOON:043:1,2017-10-14T13:30:00Z,27.8838,-97.5332,0.0,16.5,1111122 
TCOON,ioos:station:TCOON:043:1,2017-10-14T14:30:00Z,27.8838,-97.5332,0.0,16.4,1111122 
TCOON,ioos:station:TCOON:043:1,2017-10-14T15:30:00Z,27.8838,-97.5332,0.0,16.2,1111122 
TCOON,ioos:station:TCOON:043:1,2017-10-14T16:30:00Z,27.8838,-97.5332,0.0,16.3,1111122 